Year,Month,Day,Hour,Minute,Value (Times are PST for temperature in C)
2010,06,29,00,00,11.70
2010,06,29,00,01,11.70
2010,06,29,00,02,11.70
2010,06,29,00,03,11.70
2010,06,29,00,04,11.70
2010,06,29,00,05,11.70
2010,06,29,00,06,11.70
2010,06,29,00,07,11.70
2010,06,29,00,08,11.60
2010,06,29,00,09,11.60
2010,06,29,00,10,11.60
2010,06,29,00,11,11.60
2010,06,29,00,12,11.50
2010,06,29,00,13,11.50
2010,06,29,00,14,11.50
2010,06,29,00,15,11.40
2010,06,29,00,16,11.40
2010,06,29,00,17,11.40
2010,06,29,00,18,11.50
2010,06,29,00,19,11.50
2010,06,29,00,20,11.50
2010,06,29,00,21,11.60
2010,06,29,00,22,11.70
2010,06,29,00,23,11.70
2010,06,29,00,24,11.70
2010,06,29,00,25,11.70
2010,06,29,00,26,11.80
2010,06,29,00,27,11.80
2010,06,29,00,28,11.80
2010,06,29,00,29,11.70
2010,06,29,00,30,11.70
2010,06,29,00,31,11.70
2010,06,29,00,32,11.70
2010,06,29,00,33,11.70
2010,06,29,00,34,11.60
2010,06,29,00,35,11.60
2010,06,29,00,36,11.60
2010,06,29,00,37,11.50
2010,06,29,00,38,11.40
2010,06,29,00,39,11.40
2010,06,29,00,40,11.30
2010,06,29,00,41,11.20
2010,06,29,00,42,11.20
2010,06,29,00,43,11.10
2010,06,29,00,44,11.10
2010,06,29,00,45,11.00
2010,06,29,00,46,10.90
2010,06,29,00,47,10.80
2010,06,29,00,48,10.80
2010,06,29,00,49,10.60
2010,06,29,00,50,10.60
2010,06,29,00,51,10.50
2010,06,29,00,52,10.40
2010,06,29,00,53,10.30
2010,06,29,00,54,10.30
2010,06,29,00,55,10.20
2010,06,29,00,56,10.20
2010,06,29,00,57,10.10
2010,06,29,00,58,10.10
2010,06,29,00,59,10.00
2010,06,29,01,00,10.00
2010,06,29,01,01,9.90
2010,06,29,01,02,9.90
2010,06,29,01,03,9.80
2010,06,29,01,04,9.80
2010,06,29,01,05,9.80
2010,06,29,01,06,9.70
2010,06,29,01,07,9.70
2010,06,29,01,08,9.60
2010,06,29,01,09,9.50
2010,06,29,01,10,9.40
2010,06,29,01,11,9.30
2010,06,29,01,12,9.20
2010,06,29,01,13,9.10
2010,06,29,01,14,9.00
2010,06,29,01,15,9.00
2010,06,29,01,16,8.90
2010,06,29,01,17,8.90
2010,06,29,01,18,8.80
2010,06,29,01,19,8.80
2010,06,29,01,20,8.80
2010,06,29,01,21,8.70
2010,06,29,01,22,8.70
2010,06,29,01,23,8.70
2010,06,29,01,24,8.70
2010,06,29,01,25,8.70
2010,06,29,01,26,8.60
2010,06,29,01,27,8.60
2010,06,29,01,28,8.50
2010,06,29,01,29,8.50
2010,06,29,01,30,8.50
2010,06,29,01,31,8.40
2010,06,29,01,32,8.40
2010,06,29,01,33,8.40
2010,06,29,01,34,8.40
2010,06,29,01,35,8.40
2010,06,29,01,36,8.40
2010,06,29,01,37,8.40
2010,06,29,01,38,8.40
2010,06,29,01,39,8.40
2010,06,29,01,40,8.30
2010,06,29,01,41,8.30
2010,06,29,01,42,8.20
2010,06,29,01,43,8.10
2010,06,29,01,44,8.10
2010,06,29,01,45,8.00
2010,06,29,01,46,8.00
2010,06,29,01,47,7.90
2010,06,29,01,48,7.90
2010,06,29,01,49,7.80
2010,06,29,01,50,7.80
2010,06,29,01,51,7.70
2010,06,29,01,52,7.70
2010,06,29,01,53,7.60
2010,06,29,01,54,7.50
2010,06,29,01,55,7.50
2010,06,29,01,56,7.50
2010,06,29,01,57,7.40
2010,06,29,01,58,7.40
2010,06,29,01,59,7.40
2010,06,29,02,00,7.40
2010,06,29,02,01,7.40
2010,06,29,02,02,7.40
2010,06,29,02,03,7.40
2010,06,29,02,04,7.40
2010,06,29,02,05,7.40
2010,06,29,02,06,7.30
2010,06,29,02,07,7.30
2010,06,29,02,08,7.30
2010,06,29,02,09,7.30
2010,06,29,02,10,7.30
2010,06,29,02,11,7.30
2010,06,29,02,12,7.30
2010,06,29,02,13,7.30
2010,06,29,02,14,7.30
2010,06,29,02,15,7.30
2010,06,29,02,16,7.30
2010,06,29,02,17,7.30
2010,06,29,02,18,7.30
2010,06,29,02,19,7.30
2010,06,29,02,20,7.30
2010,06,29,02,21,7.20
2010,06,29,02,22,7.20
2010,06,29,02,23,7.20
2010,06,29,02,24,7.20
2010,06,29,02,25,7.20
2010,06,29,02,26,7.10
2010,06,29,02,27,7.10
2010,06,29,02,28,7.10
2010,06,29,02,29,7.00
2010,06,29,02,30,7.00
2010,06,29,02,31,6.90
2010,06,29,02,32,6.80
2010,06,29,02,33,6.80
2010,06,29,02,34,6.80
2010,06,29,02,35,6.80
2010,06,29,02,36,6.80
2010,06,29,02,37,6.70
2010,06,29,02,38,6.70
2010,06,29,02,39,6.70
2010,06,29,02,40,6.70
2010,06,29,02,41,6.60
2010,06,29,02,42,6.60
2010,06,29,02,43,6.60
2010,06,29,02,44,6.50
2010,06,29,02,45,6.50
2010,06,29,02,46,6.40
2010,06,29,02,47,6.40
2010,06,29,02,48,6.40
2010,06,29,02,49,6.30
2010,06,29,02,50,6.30
2010,06,29,02,51,6.30
2010,06,29,02,52,6.30
2010,06,29,02,53,6.30
2010,06,29,02,54,6.30
2010,06,29,02,55,6.30
2010,06,29,02,56,6.20
2010,06,29,02,57,6.20
2010,06,29,02,58,6.20
2010,06,29,02,59,6.20
2010,06,29,03,00,6.20
2010,06,29,03,01,6.20
2010,06,29,03,02,6.20
2010,06,29,03,03,6.20
2010,06,29,03,06,6.20
2010,06,29,03,07,6.20
2010,06,29,03,08,6.20
2010,06,29,03,09,6.20
2010,06,29,03,10,6.20
2010,06,29,03,11,6.20
2010,06,29,03,12,6.20
2010,06,29,03,13,6.20
2010,06,29,03,14,6.20
2010,06,29,03,15,6.20
2010,06,29,03,16,6.20
2010,06,29,03,17,6.20
2010,06,29,03,18,6.20
2010,06,29,03,19,6.30
2010,06,29,03,20,6.30
2010,06,29,03,21,6.30
2010,06,29,03,22,6.30
2010,06,29,03,23,6.30
2010,06,29,03,24,6.30
2010,06,29,03,25,6.30
2010,06,29,03,26,6.20
2010,06,29,03,27,6.20
2010,06,29,03,28,6.20
2010,06,29,03,29,6.20
2010,06,29,03,30,6.20
2010,06,29,03,31,6.10
2010,06,29,03,32,6.10
2010,06,29,03,33,6.20
2010,06,29,03,34,6.20
2010,06,29,03,35,6.10
2010,06,29,03,36,6.10
2010,06,29,03,37,6.10
2010,06,29,03,38,6.00
2010,06,29,03,39,6.00
2010,06,29,03,40,6.00
2010,06,29,03,41,5.90
2010,06,29,03,42,5.90
2010,06,29,03,43,5.90
2010,06,29,03,44,5.80
2010,06,29,03,45,5.80
2010,06,29,03,46,5.80
2010,06,29,03,47,5.80
2010,06,29,03,48,5.80
2010,06,29,03,49,5.80
2010,06,29,03,50,5.80
2010,06,29,03,51,5.90
2010,06,29,03,52,5.90
2010,06,29,03,53,5.90
2010,06,29,03,54,5.90
2010,06,29,03,55,5.90
2010,06,29,03,56,5.90
2010,06,29,03,57,5.90
2010,06,29,03,58,5.90
2010,06,29,03,59,5.90
2010,06,29,04,00,5.90
2010,06,29,04,01,5.90
2010,06,29,04,02,5.90
2010,06,29,04,03,5.90
2010,06,29,04,04,5.90
2010,06,29,04,05,5.90
2010,06,29,04,06,5.90
2010,06,29,04,07,5.90
2010,06,29,04,08,5.90
2010,06,29,04,09,5.90
2010,06,29,04,10,5.90
2010,06,29,04,11,5.90
2010,06,29,04,12,5.90
2010,06,29,04,13,5.90
2010,06,29,04,14,5.90
2010,06,29,04,15,5.90
2010,06,29,04,16,5.90
2010,06,29,04,17,5.90
2010,06,29,04,18,5.90
2010,06,29,04,19,5.90
2010,06,29,04,20,5.80
2010,06,29,04,21,5.80
2010,06,29,04,22,5.80
2010,06,29,04,23,5.80
2010,06,29,04,24,5.80
2010,06,29,04,25,5.80
2010,06,29,04,26,5.80
2010,06,29,04,27,5.80
2010,06,29,04,28,5.70
2010,06,29,04,29,5.70
2010,06,29,04,30,5.70
2010,06,29,04,31,5.70
2010,06,29,04,32,5.80
2010,06,29,04,33,5.80
2010,06,29,04,34,5.80
2010,06,29,04,35,5.80
2010,06,29,04,36,5.80
2010,06,29,04,37,5.80
2010,06,29,04,38,5.80
2010,06,29,04,39,5.80
2010,06,29,04,40,5.70
2010,06,29,04,41,5.70
2010,06,29,04,42,5.70
2010,06,29,04,43,5.70
2010,06,29,04,44,5.70
2010,06,29,04,45,5.70
2010,06,29,04,46,5.70
2010,06,29,04,47,5.70
2010,06,29,04,48,5.70
2010,06,29,04,49,5.70
2010,06,29,04,50,5.70
2010,06,29,04,51,5.60
2010,06,29,04,52,5.60
2010,06,29,04,53,5.60
2010,06,29,04,54,5.50
2010,06,29,04,55,5.50
2010,06,29,04,56,5.50
2010,06,29,04,57,5.40
2010,06,29,04,58,5.40
2010,06,29,04,59,5.40
2010,06,29,05,00,5.40
2010,06,29,05,01,5.40
2010,06,29,05,02,5.40
2010,06,29,05,03,5.40
2010,06,29,05,04,5.40
2010,06,29,05,05,5.50
2010,06,29,05,06,5.40
2010,06,29,05,07,5.50
2010,06,29,05,08,5.50
2010,06,29,05,09,5.40
2010,06,29,05,10,5.40
2010,06,29,05,11,5.40
2010,06,29,05,12,5.40
2010,06,29,05,13,5.40
2010,06,29,05,14,5.40
2010,06,29,05,15,5.30
2010,06,29,05,16,5.30
2010,06,29,05,17,5.30
2010,06,29,05,18,5.30
2010,06,29,05,19,5.30
2010,06,29,05,20,5.30
2010,06,29,05,21,5.30
2010,06,29,05,22,5.30
2010,06,29,05,23,5.30
2010,06,29,05,24,5.30
2010,06,29,05,25,5.30
2010,06,29,05,26,5.30
2010,06,29,05,27,5.30
2010,06,29,05,28,5.30
2010,06,29,05,29,5.30
2010,06,29,05,30,5.30
2010,06,29,05,31,5.30
2010,06,29,05,32,5.30
2010,06,29,05,33,5.30
2010,06,29,05,34,5.30
2010,06,29,05,35,5.30
2010,06,29,05,36,5.30
2010,06,29,05,37,5.40
2010,06,29,05,38,5.40
2010,06,29,05,39,5.40
2010,06,29,05,40,5.40
2010,06,29,05,41,5.40
2010,06,29,05,42,5.40
2010,06,29,05,43,5.40
2010,06,29,05,44,5.40
2010,06,29,05,45,5.40
2010,06,29,05,46,5.40
2010,06,29,05,47,5.40
2010,06,29,05,48,5.40
2010,06,29,05,49,5.40
2010,06,29,05,50,5.40
2010,06,29,05,51,5.40
2010,06,29,05,52,5.30
2010,06,29,05,53,5.30
2010,06,29,05,54,5.30
2010,06,29,05,55,5.30
2010,06,29,05,56,5.20
2010,06,29,05,57,5.20
2010,06,29,05,58,5.20
2010,06,29,05,59,5.20
2010,06,29,06,00,5.20
2010,06,29,06,01,5.10
2010,06,29,06,02,5.10
2010,06,29,06,03,5.10
2010,06,29,06,04,5.10
2010,06,29,06,05,5.10
2010,06,29,06,06,5.10
2010,06,29,06,07,5.10
2010,06,29,06,08,5.20
2010,06,29,06,09,5.20
2010,06,29,06,10,5.20
2010,06,29,06,11,5.20
2010,06,29,06,12,5.30
2010,06,29,06,13,5.30
2010,06,29,06,14,5.30
2010,06,29,06,15,5.30
2010,06,29,06,16,5.30
2010,06,29,06,17,5.30
2010,06,29,06,18,5.30
2010,06,29,06,19,5.30
2010,06,29,06,20,5.30
2010,06,29,06,21,5.30
2010,06,29,06,22,5.30
2010,06,29,06,23,5.40
2010,06,29,06,24,5.40
2010,06,29,06,25,5.40
2010,06,29,06,26,5.50
2010,06,29,06,27,5.50
2010,06,29,06,28,5.50
2010,06,29,06,29,5.60
2010,06,29,06,30,5.60
2010,06,29,06,31,5.60
2010,06,29,06,32,5.70
2010,06,29,06,33,5.70
2010,06,29,06,34,5.70
2010,06,29,06,35,5.80
2010,06,29,06,36,5.80
2010,06,29,06,37,5.80
2010,06,29,06,38,5.80
2010,06,29,06,39,5.90
2010,06,29,06,40,5.90
2010,06,29,06,41,5.90
2010,06,29,06,42,5.90
2010,06,29,06,43,6.00
2010,06,29,06,44,6.00
2010,06,29,06,45,6.10
2010,06,29,06,46,6.10
2010,06,29,06,47,6.20
2010,06,29,06,48,6.20
2010,06,29,06,49,6.30
2010,06,29,06,50,6.40
2010,06,29,06,51,6.40
2010,06,29,06,52,6.50
2010,06,29,06,53,6.60
2010,06,29,06,54,6.70
2010,06,29,06,55,6.80
2010,06,29,06,56,6.90
2010,06,29,06,57,7.00
2010,06,29,06,58,7.10
2010,06,29,06,59,7.10
2010,06,29,07,00,7.20
2010,06,29,07,01,7.20
2010,06,29,07,02,7.30
2010,06,29,07,03,7.40
2010,06,29,07,04,7.40
2010,06,29,07,05,7.50
2010,06,29,07,06,7.60
2010,06,29,07,07,7.70
2010,06,29,07,08,7.80
2010,06,29,07,09,7.90
2010,06,29,07,10,8.00
2010,06,29,07,11,8.10
2010,06,29,07,12,8.20
2010,06,29,07,13,8.30
2010,06,29,07,14,8.40
2010,06,29,07,15,8.50
2010,06,29,07,16,8.60
2010,06,29,07,17,8.70
2010,06,29,07,18,8.80
2010,06,29,07,19,9.00
2010,06,29,07,20,9.10
2010,06,29,07,21,9.20
2010,06,29,07,22,9.30
2010,06,29,07,23,9.40
2010,06,29,07,24,9.60
2010,06,29,07,25,9.70
2010,06,29,07,26,9.80
2010,06,29,07,27,9.90
2010,06,29,07,28,10.00
2010,06,29,07,29,10.10
2010,06,29,07,30,10.20
2010,06,29,07,31,10.30
2010,06,29,07,32,10.40
2010,06,29,07,33,10.50
2010,06,29,07,34,10.60
2010,06,29,07,35,10.70
2010,06,29,07,36,10.80
2010,06,29,07,37,10.90
2010,06,29,07,38,11.00
2010,06,29,07,39,11.10
2010,06,29,07,40,11.20
2010,06,29,07,41,11.30
2010,06,29,07,42,11.40
2010,06,29,07,43,11.50
2010,06,29,07,44,11.50
2010,06,29,07,45,11.60
2010,06,29,07,46,11.70
2010,06,29,07,47,11.70
2010,06,29,07,48,11.70
2010,06,29,07,49,11.80
2010,06,29,07,50,11.80
2010,06,29,07,51,11.90
2010,06,29,07,52,11.90
2010,06,29,07,53,12.00
2010,06,29,07,54,12.10
2010,06,29,07,55,12.20
2010,06,29,07,56,12.20
2010,06,29,07,57,12.30
2010,06,29,07,58,12.40
2010,06,29,07,59,12.50
2010,06,29,08,00,12.50
2010,06,29,08,01,12.60
2010,06,29,08,02,12.70
2010,06,29,08,03,12.70
2010,06,29,08,04,12.80
2010,06,29,08,05,12.90
2010,06,29,08,06,12.90
2010,06,29,08,07,13.00
2010,06,29,08,08,13.00
2010,06,29,08,09,13.00
2010,06,29,08,10,13.00
2010,06,29,08,11,13.10
2010,06,29,08,12,13.10
2010,06,29,08,13,13.10
2010,06,29,08,14,13.10
2010,06,29,08,15,13.10
2010,06,29,08,16,13.20
2010,06,29,08,17,13.20
2010,06,29,08,18,13.20
2010,06,29,08,19,13.30
2010,06,29,08,20,13.30
2010,06,29,08,21,13.30
2010,06,29,08,22,13.30
2010,06,29,08,23,13.30
2010,06,29,08,24,13.30
2010,06,29,08,25,13.30
2010,06,29,08,26,13.40
2010,06,29,08,27,13.40
2010,06,29,08,28,13.40
2010,06,29,08,29,13.50
2010,06,29,08,30,13.50
2010,06,29,08,31,13.60
2010,06,29,08,32,13.60
2010,06,29,08,33,13.60
2010,06,29,08,34,13.70
2010,06,29,08,35,13.70
2010,06,29,08,36,13.80
2010,06,29,08,37,13.80
2010,06,29,08,38,13.80
2010,06,29,08,39,13.90
2010,06,29,08,40,13.90
2010,06,29,08,41,13.90
2010,06,29,08,42,14.00
2010,06,29,08,43,14.10
2010,06,29,08,44,14.10
2010,06,29,08,45,14.10
2010,06,29,08,46,14.20
2010,06,29,08,47,14.30
2010,06,29,08,48,14.30
2010,06,29,08,49,14.40
2010,06,29,08,50,14.50
2010,06,29,08,51,14.60
2010,06,29,08,52,14.60
2010,06,29,08,53,14.70
2010,06,29,08,54,14.70
2010,06,29,08,55,14.80
2010,06,29,08,56,14.80
2010,06,29,08,57,14.90
2010,06,29,08,58,14.90
2010,06,29,08,59,14.90
2010,06,29,09,00,14.90
2010,06,29,09,01,15.00
2010,06,29,09,02,15.00
2010,06,29,09,03,15.00
2010,06,29,09,04,15.00
2010,06,29,09,05,15.00
2010,06,29,09,06,15.20
2010,06,29,09,07,15.30
2010,06,29,09,08,15.40
2010,06,29,09,09,15.50
2010,06,29,09,10,15.60
2010,06,29,09,11,15.70
2010,06,29,09,12,15.80
2010,06,29,09,13,15.90
2010,06,29,09,14,16.00
2010,06,29,09,15,16.00
2010,06,29,09,16,16.20
2010,06,29,09,17,16.20
2010,06,29,09,18,16.30
2010,06,29,09,19,16.40
2010,06,29,09,20,16.50
2010,06,29,09,21,16.60
2010,06,29,09,22,16.60
2010,06,29,09,23,16.70
2010,06,29,09,24,16.80
2010,06,29,09,25,16.90
2010,06,29,09,26,16.90
2010,06,29,09,27,16.80
2010,06,29,09,28,16.60
2010,06,29,09,29,16.40
2010,06,29,09,30,16.20
2010,06,29,09,31,16.10
2010,06,29,09,32,15.90
2010,06,29,09,33,15.80
2010,06,29,09,34,15.70
2010,06,29,09,35,15.70
2010,06,29,09,36,15.70
2010,06,29,09,37,15.60
2010,06,29,09,38,15.60
2010,06,29,09,39,15.60
2010,06,29,09,40,15.60
2010,06,29,09,41,15.60
2010,06,29,09,42,15.60
2010,06,29,09,43,15.50
2010,06,29,09,44,15.40
2010,06,29,09,45,15.30
2010,06,29,09,46,15.30
2010,06,29,09,47,15.20
2010,06,29,09,48,15.20
2010,06,29,09,49,15.30
2010,06,29,09,50,15.30
2010,06,29,09,51,15.30
2010,06,29,09,52,15.30
2010,06,29,09,53,15.40
2010,06,29,09,54,15.40
2010,06,29,09,55,15.30
2010,06,29,09,56,15.20
2010,06,29,09,57,15.10
2010,06,29,09,58,15.10
2010,06,29,09,59,15.20
2010,06,29,10,00,15.20
2010,06,29,10,01,15.20
2010,06,29,10,02,15.30
2010,06,29,10,03,15.30
2010,06,29,10,04,15.40
2010,06,29,10,05,15.40
2010,06,29,10,06,15.40
2010,06,29,10,07,15.40
2010,06,29,10,08,15.50
2010,06,29,10,09,15.60
2010,06,29,10,10,15.70
2010,06,29,10,11,15.80
2010,06,29,10,12,15.80
2010,06,29,10,13,15.90
2010,06,29,10,14,15.90
2010,06,29,10,15,16.00
2010,06,29,10,16,16.10
2010,06,29,10,17,16.20
2010,06,29,10,18,16.30
2010,06,29,10,19,16.30
2010,06,29,10,20,16.40
2010,06,29,10,21,16.40
2010,06,29,10,22,16.30
2010,06,29,10,23,16.20
2010,06,29,10,24,16.10
2010,06,29,10,25,16.00
2010,06,29,10,26,15.90
2010,06,29,10,27,15.90
2010,06,29,10,28,15.90
2010,06,29,10,29,15.90
2010,06,29,10,30,15.80
2010,06,29,10,31,15.80
2010,06,29,10,32,15.80
2010,06,29,10,33,15.80
2010,06,29,10,34,15.80
2010,06,29,10,35,15.80
2010,06,29,10,36,15.80
2010,06,29,10,37,15.90
2010,06,29,10,38,15.90
2010,06,29,10,39,15.90
2010,06,29,10,40,15.90
2010,06,29,10,41,15.80
2010,06,29,10,42,15.80
2010,06,29,10,43,15.80
2010,06,29,10,44,15.80
2010,06,29,10,45,15.80
2010,06,29,10,46,15.70
2010,06,29,10,47,15.70
2010,06,29,10,48,15.70
2010,06,29,10,49,15.60
2010,06,29,10,50,15.50
2010,06,29,10,51,15.40
2010,06,29,10,52,15.40
2010,06,29,10,53,15.30
2010,06,29,10,54,15.30
2010,06,29,10,55,15.30
2010,06,29,10,56,15.30
2010,06,29,10,57,15.30
2010,06,29,10,58,15.30
2010,06,29,10,59,15.30
2010,06,29,11,00,15.20
2010,06,29,11,01,15.20
2010,06,29,11,02,15.20
2010,06,29,11,03,15.20
2010,06,29,11,04,15.20
2010,06,29,11,05,15.20
2010,06,29,11,06,15.10
2010,06,29,11,07,15.20
2010,06,29,11,08,15.20
2010,06,29,11,09,15.20
2010,06,29,11,10,15.20
2010,06,29,11,11,15.20
2010,06,29,11,12,15.20
2010,06,29,11,13,15.20
2010,06,29,11,14,15.20
2010,06,29,11,15,15.20
2010,06,29,11,16,15.10
2010,06,29,11,17,15.10
2010,06,29,11,18,15.10
2010,06,29,11,19,15.10
2010,06,29,11,20,15.10
2010,06,29,11,21,15.10
2010,06,29,11,22,15.10
2010,06,29,11,23,15.00
2010,06,29,11,24,15.00
2010,06,29,11,25,15.00
2010,06,29,11,26,15.00
2010,06,29,11,27,15.00
2010,06,29,11,28,15.10
2010,06,29,11,29,15.20
2010,06,29,11,30,15.30
2010,06,29,11,31,15.30
2010,06,29,11,32,15.40
2010,06,29,11,33,15.50
2010,06,29,11,34,15.70
2010,06,29,11,35,15.80
2010,06,29,11,36,15.90
2010,06,29,11,37,16.10
2010,06,29,11,38,16.10
2010,06,29,11,39,16.20
2010,06,29,11,40,16.20
2010,06,29,11,41,16.20
2010,06,29,11,42,16.10
2010,06,29,11,43,16.00
2010,06,29,11,44,16.00
2010,06,29,11,45,16.00
2010,06,29,11,46,16.00
2010,06,29,11,47,16.00
2010,06,29,11,48,16.00
2010,06,29,11,49,16.10
2010,06,29,11,50,16.20
2010,06,29,11,51,16.20
2010,06,29,11,52,16.20
2010,06,29,11,53,16.20
2010,06,29,11,54,16.20
2010,06,29,11,55,16.30
2010,06,29,11,56,16.30
2010,06,29,11,57,16.30
2010,06,29,11,58,16.20
2010,06,29,11,59,16.20
2010,06,29,12,00,16.20
2010,06,29,12,01,16.20
2010,06,29,12,02,16.20
2010,06,29,12,03,16.20
2010,06,29,12,04,16.20
2010,06,29,12,05,16.30
2010,06,29,12,06,16.30
2010,06,29,12,07,16.30
2010,06,29,12,08,16.30
2010,06,29,12,09,16.30
2010,06,29,12,10,16.30
2010,06,29,12,11,16.30
2010,06,29,12,12,16.30
2010,06,29,12,13,16.30
2010,06,29,12,14,16.30
2010,06,29,12,15,16.30
2010,06,29,12,16,16.30
2010,06,29,12,17,16.30
2010,06,29,12,18,16.30
2010,06,29,12,19,16.40
2010,06,29,12,20,16.40
2010,06,29,12,21,16.50
2010,06,29,12,22,16.60
2010,06,29,12,23,16.70
2010,06,29,12,24,16.80
2010,06,29,12,25,16.90
2010,06,29,12,26,17.00
2010,06,29,12,27,17.20
2010,06,29,12,28,17.30
2010,06,29,12,29,17.40
2010,06,29,12,30,17.50
2010,06,29,12,31,17.60
2010,06,29,12,32,17.60
2010,06,29,12,33,17.50
2010,06,29,12,34,17.40
2010,06,29,12,35,17.40
2010,06,29,12,36,17.30
2010,06,29,12,37,17.20
2010,06,29,12,38,17.10
2010,06,29,12,39,16.90
2010,06,29,12,40,16.70
2010,06,29,12,41,16.60
2010,06,29,12,42,16.50
2010,06,29,12,43,16.40
2010,06,29,12,44,16.30
2010,06,29,12,45,16.30
2010,06,29,12,46,16.30
2010,06,29,12,47,16.30
2010,06,29,12,48,16.40
2010,06,29,12,49,16.40
2010,06,29,12,50,16.40
2010,06,29,12,51,16.50
2010,06,29,12,52,16.50
2010,06,29,12,53,16.50
2010,06,29,12,54,16.50
2010,06,29,12,55,16.60
2010,06,29,12,56,16.60
2010,06,29,12,57,16.50
2010,06,29,12,58,16.40
2010,06,29,12,59,16.30
2010,06,29,13,00,16.10
2010,06,29,13,01,15.90
2010,06,29,13,02,15.70
2010,06,29,13,03,15.70
2010,06,29,13,04,15.70
2010,06,29,13,05,15.70
2010,06,29,13,06,15.70
2010,06,29,13,07,15.70
2010,06,29,13,08,15.80
2010,06,29,13,09,15.80
2010,06,29,13,10,15.70
2010,06,29,13,11,15.70
2010,06,29,13,12,15.70
2010,06,29,13,13,15.80
2010,06,29,13,14,15.80
2010,06,29,13,15,15.90
2010,06,29,13,16,15.90
2010,06,29,13,17,16.00
2010,06,29,13,18,16.00
2010,06,29,13,19,16.10
2010,06,29,13,20,16.10
2010,06,29,13,21,16.10
2010,06,29,13,22,16.10
2010,06,29,13,23,16.10
2010,06,29,13,24,16.00
2010,06,29,13,25,15.90
2010,06,29,13,26,15.80
2010,06,29,13,27,15.70
2010,06,29,13,28,15.60
2010,06,29,13,29,15.60
2010,06,29,13,30,15.50
2010,06,29,13,31,15.50
2010,06,29,13,32,15.50
2010,06,29,13,33,15.50
2010,06,29,13,34,15.50
2010,06,29,13,35,15.50
2010,06,29,13,36,15.50
2010,06,29,13,37,15.50
2010,06,29,13,38,15.60
2010,06,29,13,39,15.60
2010,06,29,13,40,15.70
2010,06,29,13,41,15.70
2010,06,29,13,42,15.70
2010,06,29,13,43,15.80
2010,06,29,13,44,15.80
2010,06,29,13,45,15.80
2010,06,29,13,46,15.80
2010,06,29,13,47,15.70
2010,06,29,13,48,15.70
2010,06,29,13,49,15.70
2010,06,29,13,50,15.70
2010,06,29,13,51,15.60
2010,06,29,13,52,15.60
2010,06,29,13,53,15.60
2010,06,29,13,54,15.60
2010,06,29,13,55,15.60
2010,06,29,13,56,15.50
2010,06,29,13,57,15.50
2010,06,29,13,58,15.50
2010,06,29,13,59,15.50
2010,06,29,14,00,15.40
2010,06,29,14,01,15.40
2010,06,29,14,02,15.40
2010,06,29,14,03,15.40
2010,06,29,14,04,15.40
2010,06,29,14,05,15.40
2010,06,29,14,06,15.30
2010,06,29,14,07,15.30
2010,06,29,14,08,15.30
2010,06,29,14,09,15.30
2010,06,29,14,10,15.10
2010,06,29,14,11,15.00
2010,06,29,14,12,15.00
2010,06,29,14,13,14.90
2010,06,29,14,14,14.70
2010,06,29,14,15,14.60
2010,06,29,14,16,14.50
2010,06,29,14,17,14.40
2010,06,29,14,18,14.40
2010,06,29,14,19,14.30
2010,06,29,14,20,14.30
2010,06,29,14,21,14.30
2010,06,29,14,22,14.30
2010,06,29,14,23,14.30
2010,06,29,14,24,14.30
2010,06,29,14,25,14.30
2010,06,29,14,26,14.40
2010,06,29,14,27,14.40
2010,06,29,14,28,14.50
2010,06,29,14,29,14.50
2010,06,29,14,30,14.50
2010,06,29,14,31,14.50
2010,06,29,14,32,14.60
2010,06,29,14,33,14.70
2010,06,29,14,34,14.80
2010,06,29,14,35,15.00
2010,06,29,14,36,15.00
2010,06,29,14,37,15.10
2010,06,29,14,38,15.30
2010,06,29,14,39,15.50
2010,06,29,14,40,15.60
2010,06,29,14,41,15.70
2010,06,29,14,42,15.70
2010,06,29,14,43,15.80
2010,06,29,14,44,15.90
2010,06,29,14,45,15.90
2010,06,29,14,46,16.00
2010,06,29,14,47,16.00
2010,06,29,14,48,16.10
2010,06,29,14,49,16.10
2010,06,29,14,50,16.00
2010,06,29,14,51,16.00
2010,06,29,14,52,15.90
2010,06,29,14,53,15.90
2010,06,29,14,54,15.80
2010,06,29,14,55,15.80
2010,06,29,14,56,15.70
2010,06,29,14,57,15.70
2010,06,29,14,58,15.70
2010,06,29,14,59,15.60
2010,06,29,15,00,15.50
2010,06,29,15,01,15.50
2010,06,29,15,02,15.50
2010,06,29,15,03,15.50
2010,06,29,15,04,15.50
2010,06,29,15,05,15.50
2010,06,29,15,06,15.60
2010,06,29,15,07,15.60
2010,06,29,15,08,15.60
2010,06,29,15,09,15.50
2010,06,29,15,10,15.40
2010,06,29,15,11,15.40
2010,06,29,15,12,15.30
2010,06,29,15,13,15.10
2010,06,29,15,14,15.00
2010,06,29,15,15,15.00
2010,06,29,15,16,14.90
2010,06,29,15,17,14.70
2010,06,29,15,18,14.60
2010,06,29,15,19,14.50
2010,06,29,15,20,14.40
2010,06,29,15,21,14.30
2010,06,29,15,22,14.30
2010,06,29,15,23,14.30
2010,06,29,15,24,14.20
2010,06,29,15,25,14.20
2010,06,29,15,26,14.20
2010,06,29,15,27,14.20
2010,06,29,15,28,14.20
2010,06,29,15,29,14.20
2010,06,29,15,30,14.20
2010,06,29,15,31,14.20
2010,06,29,15,32,14.20
2010,06,29,15,33,14.20
2010,06,29,15,34,14.30
2010,06,29,15,35,14.30
2010,06,29,15,36,14.30
2010,06,29,15,37,14.30
2010,06,29,15,38,14.30
2010,06,29,15,39,14.30
2010,06,29,15,40,14.30
2010,06,29,15,41,14.30
2010,06,29,15,42,14.30
2010,06,29,15,43,14.30
2010,06,29,15,44,14.30
2010,06,29,15,45,14.30
2010,06,29,15,46,14.30
2010,06,29,15,47,14.30
2010,06,29,15,48,14.20
2010,06,29,15,49,14.20
2010,06,29,15,50,14.20
2010,06,29,15,51,14.20
2010,06,29,15,52,14.20
2010,06,29,15,53,14.20
2010,06,29,15,54,14.20
2010,06,29,15,55,14.20
2010,06,29,15,56,14.10
2010,06,29,15,57,14.10
2010,06,29,15,58,14.10
2010,06,29,15,59,14.00
2010,06,29,16,00,13.90
2010,06,29,16,01,13.90
2010,06,29,16,02,13.90
2010,06,29,16,03,13.90
2010,06,29,16,04,13.90
2010,06,29,16,05,13.90
2010,06,29,16,06,13.90
2010,06,29,16,07,14.00
2010,06,29,16,08,14.00
2010,06,29,16,09,14.10
2010,06,29,16,10,14.10
2010,06,29,16,11,14.10
2010,06,29,16,12,14.10
2010,06,29,16,13,14.10
2010,06,29,16,14,14.10
2010,06,29,16,15,14.10
2010,06,29,16,16,14.10
2010,06,29,16,17,14.10
2010,06,29,16,18,14.10
2010,06,29,16,19,14.10
2010,06,29,16,20,14.20
2010,06,29,16,21,14.20
2010,06,29,16,22,14.20
2010,06,29,16,23,14.20
2010,06,29,16,24,14.20
2010,06,29,16,25,14.20
2010,06,29,16,26,14.30
2010,06,29,16,27,14.30
2010,06,29,16,28,14.50
2010,06,29,16,29,14.50
2010,06,29,16,30,14.60
2010,06,29,16,31,14.70
2010,06,29,16,32,14.70
2010,06,29,16,33,14.80
2010,06,29,16,34,14.80
2010,06,29,16,35,14.80
2010,06,29,16,36,14.90
2010,06,29,16,37,15.00
2010,06,29,16,38,15.00
2010,06,29,16,39,15.00
2010,06,29,16,40,15.00
2010,06,29,16,41,15.00
2010,06,29,16,42,15.10
2010,06,29,16,43,15.30
2010,06,29,16,44,15.50
2010,06,29,16,45,15.60
2010,06,29,16,46,15.70
2010,06,29,16,47,15.90
2010,06,29,16,48,16.00
2010,06,29,16,49,16.10
2010,06,29,16,50,16.20
2010,06,29,16,51,16.30
2010,06,29,16,52,16.40
2010,06,29,16,53,16.40
2010,06,29,16,54,16.40
2010,06,29,16,55,16.50
2010,06,29,16,56,16.40
2010,06,29,16,57,16.40
2010,06,29,16,58,16.30
2010,06,29,16,59,16.30
2010,06,29,17,00,16.30
2010,06,29,17,01,16.30
2010,06,29,17,02,16.20
2010,06,29,17,03,16.10
2010,06,29,17,04,16.00
2010,06,29,17,05,15.90
2010,06,29,17,06,15.80
2010,06,29,17,07,15.70
2010,06,29,17,08,15.60
2010,06,29,17,09,15.50
2010,06,29,17,10,15.50
2010,06,29,17,11,15.40
2010,06,29,17,12,15.40
2010,06,29,17,13,15.40
2010,06,29,17,14,15.50
2010,06,29,17,15,15.60
2010,06,29,17,16,15.70
2010,06,29,17,17,15.80
2010,06,29,17,18,15.90
2010,06,29,17,19,15.90
2010,06,29,17,20,15.90
2010,06,29,17,21,15.90
2010,06,29,17,22,15.90
2010,06,29,17,23,15.80
2010,06,29,17,24,15.70
2010,06,29,17,25,15.60
2010,06,29,17,26,15.50
2010,06,29,17,27,15.50
2010,06,29,17,28,15.40
2010,06,29,17,29,15.40
2010,06,29,17,30,15.30
2010,06,29,17,31,15.30
2010,06,29,17,32,15.30
2010,06,29,17,33,15.20
2010,06,29,17,34,15.20
2010,06,29,17,35,15.10
2010,06,29,17,36,15.10
2010,06,29,17,37,15.10
2010,06,29,17,38,15.20